Weather in Inuvik

Canada     68°21′45″N   133°43′43″W
temp.,
°C
wind,
m/s
gust,
m/s
humid.,
%
clouds,
%
prec.,
mm/h
press.,
hPa
HPBL,
m
8 march, mon
mon823:00−28w229468 0.0 102619
02:00−29sw11970 0.0 102819
05:00−28s22960 0.0 102719
08:00−28sse22940 0.0 102719
11:00−24sse23930 0.0 102576
14:00−19sse35900 0.0 1024235
17:00−18sse35900 0.0 1022159
20:00−22se23880 0.0 102020
9 march, tue
tue923:00−23se23860 0.0 101920
02:00−23se23880 0.0 101820
05:00−23se33870 0.0 101825
08:00−22sse58900 0.0 1017107
11:00−19sse612893 0.0 1016293
14:00−15sse8128430 0.0 1016387
17:00−14sse6118427 0.0 1015383
20:00−15sse51187100 0.0 1015286
10 march, wed
wed1023:00−17sse4885100 0.0 1015178
02:00−19sse238731 0.0 101520
05:00−19s128933 0.0 101620
08:00−19ssw239298 0.0 101520
11:00−17ssw229596 0.0 101453
14:00−13ssw239291 0.0 1012206
17:00−12sse129196 0.1 1009215
20:00−13ese1193100 0.0 100721
11 march, thu
thu1123:00−13ssw1196100 0.1 100638
02:00−13n2296100 1.2 1005115
05:00−13nnw5895100 2.7 1006384
08:00−15nw101494100 1.3 1007798
11:00−20nw121897100 2.8 1010734
14:00−21nw121896100 1.4 1013749
17:00−23nw132096100 2.3 1016743
20:00−24nw121995100 0.9 1019737
12 march, fri
fri1223:00−24nw111893100 1.3 1023733
02:00−25nw101692100 0.2 1026725
05:00−25nw91690100 0.3 1029612
08:00−27nw71393100 0.0 1032479
11:00−28nw6119394 0.0 1034377
14:00−26nnw469248 0.0 1035340
17:00−26nnw239051 0.0 1034275
20:00−31ene129519 0.0 103319